Location: Kawakawa
(35.3830°S, 174.0670°E)
Time: 16:44:08
(UTC+12:00)

Cosmos 1741 Rocket - Pass Details

Date: 24 January 2019
Orbit: 761 x 783 km, 74.0° (Epoch: 17 April)

Event Time Altitude Azimuth Distance (km) Brightness Sun altitude
Rises 21:13:40 0° 341° (NNW) 3,250 7.1 -7.4°
Reaches altitude 10° 21:16:02 10° 340° (NNW) 2,332 6.4 -7.8°
Maximum altitude 21:21:21 81° 253° (WSW) 805 4.2 -8.7°
Drops below altitude 10° 21:26:46 10° 165° (SSE) 2,369 6.8 -9.7°
Sets 21:29:11 0° 163° (SSE) 3,305 7.5 -10.1°
